Location: Newark
(41.6500°N, 71.4833°W)
Time: 10:42:10
(UTC+00:00)

Transit 4A - All Passes

Search period start: 25 January 2020 00:00
Search period end: 04 February 2020 00:00
Orbit: 871 x 973 km, 66.8° (Epoch: 24 January)

Date Brightness Start Highest point End Pass type
(mag) Time Alt. Az. Time Alt. Az. Time Alt. Az.
25 Jan - 09:32:13 10° SE 09:35:10 14° ESE 09:38:05 10° ENE visible
25 Jan - 11:14:38 10° SSW 11:20:42 88° WNW 11:26:39 10° NNE visible
25 Jan - 13:03:50 10° W 13:07:53 18° NW 13:11:53 10° N daylight
25 Jan - 18:31:53 10° N 18:36:08 20° NE 18:40:23 10° E daylight
25 Jan - 20:17:19 10° NNW 20:23:09 80° WSW 20:29:01 10° SSE daylight
25 Jan - 22:07:14 10° W 22:08:31 11° W 22:09:47 10° WSW daylight
26 Jan - 09:39:44 10° SSE 09:44:12 22° ESE 09:48:36 10° ENE visible
26 Jan - 11:24:07 10° SW 11:30:04 61° WNW 11:35:56 10° NNE visible
26 Jan - 13:14:45 10° WNW 13:17:39 14° NW 13:20:34 10° N daylight
26 Jan - 18:40:50 10° N 18:45:47 28° NE 18:50:43 10° ESE daylight
26 Jan - 20:26:45 10° NW 20:32:24 53° WSW 20:38:05 10° S daylight
27 Jan - 09:48:00 10° S 09:53:19 33° ESE 09:58:32 10° NE visible
27 Jan - 11:33:50 10° WSW 11:39:31 42° NW 11:45:07 10° NNE visible
27 Jan - 13:26:52 10° NW 13:27:32 10° NNW 13:28:11 10° NNW daylight
27 Jan - 18:49:54 10° NNW 18:55:20 38° NE 19:00:46 10° ESE daylight
27 Jan - 20:36:21 10° NW 20:41:35 35° WSW 20:46:51 10° S daylight
28 Jan - 09:56:43 10° S 10:02:29 49° ESE 10:08:10 10° NE visible
28 Jan - 11:43:49 10° WSW 11:49:03 30° NW 11:54:12 10° NNE daylight
28 Jan - 17:14:41 10° N 17:17:06 12° NNE 17:19:30 10° ENE daylight
28 Jan - 18:59:04 10° NNW 19:04:47 55° NE 19:10:33 10° SE daylight
28 Jan - 20:46:13 10° WNW 20:50:42 23° WSW 20:55:12 10° SSW daylight
29 Jan - 10:05:44 10° SSW 10:11:45 74° ESE 10:17:39 10° NNE visible
29 Jan - 11:54:06 10° W 11:58:40 22° NW 12:03:11 10° N daylight
29 Jan - 17:23:13 10° N 17:26:54 17° NE 17:30:34 10° ENE daylight
29 Jan - 19:08:19 10° NNW 19:14:10 81° ENE 19:20:04 10° SSE daylight
29 Jan - 20:56:37 10° WNW 20:59:45 15° WSW 21:02:54 10° SW daylight
30 Jan - 08:31:48 10° SE 08:35:24 17° ESE 08:38:58 10° ENE visible
30 Jan - 10:15:01 10° SW 10:21:03 77° WNW 10:26:59 10° NNE visible
30 Jan - 12:04:44 10° WNW 12:08:23 16° NW 12:12:01 10° N daylight
30 Jan - 17:32:04 10° N 17:36:36 23° NE 17:41:08 10° E daylight
30 Jan - 19:17:40 10° NW 19:23:29 69° WSW 19:29:19 10° SSE daylight
31 Jan - 08:39:40 10° SSE 08:44:29 25° ESE 08:49:12 10° NE visible
31 Jan - 10:24:35 10° SW 10:30:28 53° NW 10:36:14 10° NNE visible
31 Jan - 12:15:51 10° WNW 12:18:11 12° NNW 12:20:31 10° N daylight
31 Jan - 17:41:04 10° NNW 17:46:13 31° NE 17:51:22 10° ESE daylight
31 Jan - 19:27:11 10° NW 19:32:43 46° WSW 19:38:17 10° S daylight
01 Feb - 08:48:06 10° S 08:53:37 38° ESE 08:59:01 10° NE visible
01 Feb - 10:34:24 10° WSW 10:39:56 37° NW 10:45:23 10° NNE visible
01 Feb - 16:06:50 10° NNE 16:07:46 10° NNE 16:08:42 10° NE daylight
01 Feb - 17:50:10 10° NNW 17:55:44 44° NE 18:01:19 10° SE daylight
01 Feb - 19:36:51 10° NW 19:41:52 30° WSW 19:46:55 10° SSW daylight
02 Feb - 08:56:56 10° SSW 09:02:48 57° ESE 09:08:34 10° NE visible
02 Feb - 10:44:30 10° WSW 10:49:30 27° NW 10:54:26 10° N visible
02 Feb - 16:14:41 10° N 16:17:37 14° NE 16:20:35 10° ENE daylight
02 Feb - 17:59:21 10° NNW 18:05:10 64° ENE 18:11:00 10° SE daylight
02 Feb - 19:46:51 10° WNW 19:50:57 20° WSW 19:55:05 10° SSW daylight
03 Feb - 07:24:27 10° ESE 07:26:38 12° ESE 07:28:48 10° E visible
03 Feb - 09:06:03 10° SSW 09:12:05 84° ESE 09:18:00 10° NNE visible
03 Feb - 10:54:53 10° W 10:59:08 20° NW 11:03:22 10° N visible
03 Feb - 16:23:22 10° N 16:27:23 19° NE 16:31:25 10° E daylight
03 Feb - 18:08:39 10° NNW 18:14:31 88° WSW 18:20:25 10° SSE daylight
03 Feb - 19:57:38 10° WNW 19:59:58 12° WSW 20:02:20 10° SW daylight
